This demonstration page uses our WeatherBlox Daily Observations layout. Learn more.

Left ArrowRight Arrow

41.86663, -103.66717

Hourly Observations for January 8, 2020

Temp ( °F °C ) Dew Point ( °F °C ) Humidity (%) Winds ( mph kmh ) Pressure ( in mb ) Visibility ( mi km ) Precip ( " mm )
12:53 am 00:53 Clear 26 -3.3 22 -5.6 84 84 E 9 15 29.98 1015 10 16.0934 0 0
1:53 am 01:53 Clear 26 -3.3 21 -6.1 81 81 E 7 11 29.96 1014 10 16.0934 0 0
2:53 am 02:53 Clear 25 -3.9 21 -6.1 85 85 ESE 6 9 29.93 1014 10 16.0934 0 0
3:53 am 03:53 Clear 26 -3.3 21 -6.1 81 81 ESE 9 15 29.9 1013 10 16.0934 0 0
4:53 am 04:53 Clear 26 -3.3 21 -6.1 81 81 ESE 10 17 29.9 1012 10 16.0934 0 0
5:53 am 05:53 Clear 25 -3.9 21 -6.1 85 85 ESE 10 17 29.91 1013 10 16.0934 0 0
6:53 am 06:53 Clear 24 -4.4 21 -6.1 88 88 ESE 8 13 29.88 1012 10 16.0934 0 0
7:53 am 07:53 Sunny 24 -4.4 22 -5.6 91 91 ESE 12 19 29.85 1011 10 16.0934 0 0
8:53 am 08:53 Sunny 27 -2.8 23 -5 85 85 ESE 14 22 29.83 1010 10 16.0934 0 0
9:53 am 09:53 Sunny 31 -0.6 24 -4.4 76 76 ESE 8 13 29.8 1009 10 16.0934 0 0
10:53 am 10:53 Sunny 32 0 24 -4.4 73 73 ESE 12 19 29.75 1008 10 16.0934 0 0
11:53 am 11:53 Sunny 38 3.3 26 -3.3 62 62 ESE 7 11 29.69 1005 10 16.0934 0 0
12:53 pm 12:53 Sunny 41 5 27 -2.8 57 57 E 6 9 29.66 1004 10 16.0934 0 0
1:53 pm 13:53 Sunny 41 5 27 -2.8 57 57 ESE 8 13 29.62 1003 10 16.0934 0 0
2:53 pm 14:53 Sunny 42 5.6 27 -2.8 55 55 E 8 13 29.61 1003 10 16.0934 0 0
3:53 pm 15:53 Sunny 39 3.9 26 -3.3 60 60 ESE 6 9 29.61 1003 10 16.0934 0 0
4:53 pm 16:53 Clear 34 1.1 24 -4.4 67 67 ESE 8 13 29.64 1004 10 16.0934 0 0
5:53 pm 17:53 Clear 31 -0.6 23 -5 72 72 E 5 7 29.66 1005 10 16.0934 0 0
6:53 pm 18:53 Clear 28 -2.2 22 -5.6 78 78 E 9 15 29.68 1005 10 16.0934 0 0
7:53 pm 19:53 Clear 30 -1.1 24 -4.4 79 79 SE 6 9 29.67 1005 10 16.0934 0 0
8:53 pm 20:53 Clear 28 -2.2 24 -4.4 85 85 E 5 7 29.66 1004 10 16.0934 0 0
9:53 pm 21:53 Clear 37 2.8 26 -3.3 65 65 WNW 16 26 29.62 1003 10 16.0934 0 0
10:53 pm 22:53 Clear 36 2.2 26 -3.3 67 67 WNW 10 17 29.64 1004 10 16.0934 0 0
11:53 pm 23:53 Clear 36 2.2 26 -3.3 67 67 W 12 19 29.62 1003 10 16.0934 0 0

Powered by AerisWeather